Meteo Giornale » Osservazioni meteo Austria » Tulln

ore: 22:50 - Osservazioni Meteo Tulln
Lat. 48° 19' N Lon. 16° 7' E Alt. 175 metri s.l.m.

nuvoloso Europe/Vienna

14 °C

Nuvoloso

Temp. 24 Ore

11 °C

22 °C

Nord

0 Km/h

Dew point 11 °C

Umidità 82 %

Visibilità  30 Km

Il sole sorge alle ore 06:42

Il sole tramonta alle ore 18:53

Data e Ora Cielo e Fenomeni T °C DP °C Um. % Pres. hPa Vis. km Vento km/h
Ieri h: 22:50 nuvoloso Nuvoloso 14 11 82 1015 30 N 0
Ieri h: 21:50 molto_nuvoloso Molto Nuvoloso 15 11 76 1015 30 O/SO 7.4
Ieri h: 21:20 molto_nuvoloso Molto Nuvoloso 15 12 82 1015 35 N 3.7
Ieri h: 20:20 molto_nuvoloso Molto Nuvoloso 17 11 67 1015 35 N 3.7
Ieri h: 19:50 molto_nuvoloso Molto Nuvoloso 17 12 72 1015 35 N 3.7
Ieri h: 19:20 molto_nuvoloso Molto Nuvoloso 16 12 77 1015 0 N 3.7
Ieri h: 18:50 molto_nuvoloso Molto Nuvoloso 17 12 72 1016 0 N 3.7
Ieri h: 18:20 molto_nuvoloso Molto Nuvoloso 19 12 63 1016 0 N 3.7
Ieri h: 17:50 nuvoloso Nuvoloso 20 12 59 1016 0 S/SO 7.4
Ieri h: 17:20 nuvoloso Nuvoloso 21 11 52 1016 0 S/SO 7.4
Ieri h: 16:20 nuvoloso Nuvoloso 22 9 43 1017 0 SO 14.8
Ieri h: 15:50 nuvoloso Nuvoloso 22 10 46 1018 0 S/SO 14.8
Ieri h: 15:20 nuvoloso Nuvoloso 22 10 46 1018 0 SO 14.8
Ieri h: 14:20 nuvoloso Nuvoloso 21 9 46 1019 0 S/SO 18.5
Ieri h: 13:50 nuvoloso Nuvoloso 21 9 46 1020 0 SO 18.5
Ieri h: 13:20 nuvoloso Nuvoloso 20 10 52 1020 0 S/SO 14.8
Ieri h: 12:50 nuvoloso Nuvoloso 19 10 55 1021 0 O/SO 18.5
Ieri h: 12:20 nuvoloso Nuvoloso 18 9 55 1021 0 SO 18.5
Ieri h: 11:50 poco_nuvoloso Poco Nuvoloso 18 10 59 1022 0 O/SO 18.5
Ieri h: 10:50 poco_nuvoloso Poco Nuvoloso 17 10 63 1022 0 O/SO 25.9
Ieri h: 10:20 poco_nuvoloso Poco Nuvoloso 16 10 67 1022 0 O/SO 25.9
Ieri h: 09:50 poco_nuvoloso Poco Nuvoloso 15 9 67 1023 0 O/SO 18.5
Ieri h: 09:20 poco_nuvoloso Poco Nuvoloso 14 10 76 1023 35 O/SO 18.5
Ieri h: 08:50 poco_nuvoloso Poco Nuvoloso 13 9 76 1023 35 O/SO 14.8
Ieri h: 08:20 nuvoloso Nuvoloso 12 9 81 1023 35 O/SO 18.5
Ieri h: 07:50 molto_nuvoloso Molto Nuvoloso 11 9 87 1023 35 O/SO 11.1
Ieri h: 07:20 molto_nuvoloso Molto Nuvoloso 11 9 87 1023 35 O/SO 11.1
Ieri h: 06:50 molto_nuvoloso Molto Nuvoloso 11 9 87 1023 20 O/SO 7.4